This is the latest recevied weather packets stored in our database for station/object 4S6DRJ-13. If no packets are shown the sender has not sent any weather packets the latest 10 day(s).
| Time | Temp. | Humidity | Pressure | Rain* | Wind** | Luminosity | Snow |
|---|---|---|---|---|---|---|---|
| 1787703227 | 26.67° C | 89% | 1010.2 hPa | 0.25 mm | 2.24 m/s, 249° | 0 W/m² | - |
| 1787703166 | 26.67° C | 89% | 1010.1 hPa | 0.25 mm | 0.89 m/s, 193° | 0 W/m² | - |
| 1787703105 | 26.67° C | 89% | 1010.1 hPa | 0.25 mm | 1.79 m/s, 278° | 0 W/m² | - |
| 1787703044 | 26.67° C | 89% | 1010.2 hPa | 0.25 mm | 1.34 m/s, 235° | 0 W/m² | - |
| 1787702983 | 26.67° C | 89% | 1010.2 hPa | 0.25 mm | 0.89 m/s, 242° | 0 W/m² | - |
| 1787702922 | 27.22° C | 89% | 1010.1 hPa | 0.25 mm | 0.89 m/s, 227° | 0 W/m² | - |
| 1787702861 | 27.22° C | 88% | 1010.4 hPa | 0.25 mm | 0.89 m/s, 261° | 0 W/m² | - |
| 1787702800 | 27.22° C | 88% | 1010.2 hPa | 0.25 mm | 0.45 m/s, 217° | 0 W/m² | - |
| 1787702739 | 27.22° C | 88% | 1010.1 hPa | 0.25 mm | 1.79 m/s, 137° | 0 W/m² | - |
| 1787702678 | 27.22° C | 88% | 1010.1 hPa | 0.25 mm | 0.45 m/s, 277° | 0 W/m² | - |
| 1787702617 | 27.22° C | 88% | 1010.2 hPa | 0.25 mm | 0.89 m/s, 164° | 0 W/m² | - |
| 1787702556 | 27.22° C | 88% | 1010.2 hPa | 0 mm | 0.45 m/s, 225° | 0 W/m² | - |
| 1787702495 | 27.22° C | 88% | 1010.1 hPa | 0 mm | 0.89 m/s, 236° | 0 W/m² | - |
| 1787702434 | 27.22° C | 88% | 1010.2 hPa | 0 mm | 0.89 m/s, 178° | 0 W/m² | - |
| 1787702373 | 27.22° C | 88% | 1010 hPa | 0 mm | 1.34 m/s, 221° | 0 W/m² | - |
| 1787702312 | 27.22° C | 88% | 1010.2 hPa | 0 mm | 2.68 m/s, 245° | 0 W/m² | - |
| 1787702251 | 27.22° C | 88% | 1010.1 hPa | 0 mm | 0.45 m/s, 222° | 0 W/m² | - |
| 1787702190 | 27.22° C | 88% | 1010.2 hPa | 0 mm | 0 m/s | 0 W/m² | - |
| 1787702130 | 27.22° C | 88% | 1010.1 hPa | 0 mm | 0.89 m/s, 210° | 0 W/m² | - |
| 1787702068 | 27.22° C | 88% | 1009.9 hPa | 0 mm | 0.89 m/s, 232° | 0 W/m² | - |
| 1787702007 | 27.22° C | 88% | 1010.1 hPa | 0 mm | 0.89 m/s, 196° | 0 W/m² | - |
| 1787701946 | 27.22° C | 88% | 1010 hPa | 0 mm | 0.89 m/s, 215° | 0 W/m² | - |
| 1787701885 | 27.22° C | 88% | 1010.2 hPa | 0 mm | 0.89 m/s, 267° | 0 W/m² | - |
| 1787701824 | 27.22° C | 88% | 1010.1 hPa | 0 mm | 0.45 m/s, 241° | 0 W/m² | - |
| 1787701764 | 27.22° C | 88% | 1010.3 hPa | 0 mm | 0.45 m/s, 239° | 0 W/m² | - |
* Rain latest hour (hover to see other rain measurements)
** Current wind speed in m/s (hover to see current wind gust speed)